User: anonymous
Location: St Andrew
(49.4460°N, 2.5750°W)
Time: 01:56:52
(UTC+01:00)
Language:

Iridium 66 - Orbit

View from above orbital plane
View from above orbital plane
View from above satellite
View from above satellite

Ground track
Ground track

The orbit data is extracted from the following two-line orbital elements,

1 25289U 98021E   14210.39406266  .00000366  00000-0  12368-3 0  7952
2 25289 086.3980 304.2558 0002298 111.7320 291.9726 14.34218124853973
Epoch (UTC): 29 July 2014 09:27:27
Eccentricity: 0.0002298
inclination: 86.3980°
perigee height: 776 km
apogee height: 779 km
right ascension of ascending node: 304.2558°
argument of perigee: 111.7320°
revolutions per day: 14.34218124
mean anomaly at epoch: 291.9726°
orbit number at epoch: 85397

The dashed part of the orbit path shows where the satellite is in the earth's shadow,  

DLR